Tracking 27420 objects as of 10-Jun-2023
HD Live streaming from Space Station
objects crossing your sky now

ONEWEB-0581

Track ONEWEB-0581 now!
10-day predictions
ONEWEB-0581 is classified as:


NORAD ID: 56069
Int'l Code: 2023-043Z
Perigee: 607.3 km
Apogee: 612.9 km
Inclination: 86.9 °
Period: 96.7 minutes
Semi major axis: 6981 km
RCS: Unknown
Launch date: March 26, 2023
Source: United Kingdom (UK)
Launch site: SRIHARIKOTA (SRI)
Your satellite tracking list
Your tracking list is empty




NASA's NSSDC Master Catalog

Two Line Element Set (TLE):
1 56069U 23043Z   23161.39574559 -.00007007  00000-0 -76097-3 0  9996
2 56069  86.9041 113.8906 0004010 108.3618 251.8045 14.88401871 12398
Source of the keplerian elements: AFSPC